[[{"header":{"parameterUnit":"m.s-1","parameterCategory":1,"la1":30.2991,"la2":30.254,"lo1":-89.0895,"lo2":-89.0444,"dy":0.0017,"dx":0.0017,"nx":28,"ny":28,"refTime":"2023-09-29T21:00:00:Z","depth":0,"parameterNumber":2,"parameterNumberName":"U-component_of_WINDS"},"data":[0,0,0,0,0,0,0,0,0,0,0,0,0,0,0,0,0,0,0,0,0,0,0,0,0,0,0,0,0,0,0,0,0,0,0,0,0,0,0,0,0,0,0,0,0,0,0,0,0,0,0,0,0,0,0,0,0,0,-5.3695,-5.3695,0,-5.3744,-5.3745,-5.3745,-5.3665,-5.3662,-5.3659,-5.3656,-5.3709,-5.3712,-5.3716,0,0,0,0,0,0,0,0,0,0,0,0,0,-5.3533,-5.3536,-5.3695,-5.3695,-5.3696,-5.3744,-5.3745,-5.3746,-5.3665,-5.3662,-5.3658,-5.3655,-5.3707,-5.3712,-5.3717,0,0,0,0,0,0,0,0,0,0,0,0,0,-5.3595,-5.3537,-5.3694,-5.3661,-5.3659,-5.3744,-5.3745,-5.3746,-5.3666,-5.3662,-5.3658,-5.3654,-5.3706,-5.3711,-5.3717,-5.3837,0,0,-5.3735,-5.3738,0,0,0,0,0,0,0,0,-5.3591,-5.3601,-5.3666,-5.3664,-5.3661,-5.3694,-5.3707,-5.3776,-5.3667,-5.3663,-5.3656,-5.3652,-5.3707,-5.3713,-5.3731,-5.384,-5.3842,-5.3736,-5.374,-5.3742,-5.3744,0,0,0,0,0,0,0,-5.3587,-5.3598,-5.3714,-5.3667,-5.3664,-5.3645,-5.3649,-5.372,-5.3708,-5.3663,-5.3658,-5.3664,-5.3705,-5.3726,-5.3732,-5.3843,-5.3736,-5.3741,-5.3745,-5.3747,-5.4056,-5.406,0,0,0,0,0,0,-5.3587,-5.3595,-5.3713,-5.3716,-5.3615,-5.3651,-5.3656,-5.3688,-5.3707,-5.3706,-5.3668,-5.3661,-5.3718,-5.3725,-5.3733,-5.3877,-5.3742,-5.3748,-5.3751,-5.4051,-5.4057,-5.4062,0,0,0,0,0,0,-5.3583,-5.3598,-5.3711,-5.3654,-5.3667,-5.3659,-5.3695,-5.3691,-5.3711,-5.371,-5.3708,-5.3691,-5.3715,-5.3725,-5.3813,-5.3878,-5.375,-5.3756,-5.4046,-5.4053,-5.4059,-5.4165,0,0,0,0,0,0,-5.3579,-5.3597,-5.3642,-5.3655,-5.367,-5.3789,-5.3699,-5.3695,-5.3722,-5.3712,-5.3731,-5.3731,-5.3712,-5.3804,-5.3819,-5.3884,-5.376,-5.404,-5.4049,-5.4057,-5.4156,-5.4175,-5.4191,0,0,0,0,0,-5.3574,-5.3669,-5.3644,-5.3659,-5.3726,-5.3792,-5.3801,-5.3777,-5.3727,-5.3773,-5.3773,-5.373,-5.3868,-5.3814,-5.3829,-5.3897,-5.4036,-5.4046,-5.4056,-5.4148,-5.4171,-5.4191,0,0,0,0,0,0,-5.3663,-5.367,-5.3643,-5.3745,-5.3769,-5.3779,-5.3835,-5.3802,-5.384,-5.383,-5.38,-5.3805,-5.39,-5.3907,-5.3846,-5.4016,-5.3944,-5.3958,-5.4008,-5.403,-5.4048,-5.4044,-5.3765,0,0,0,0,0,-5.3694,-5.3747,-5.3751,-5.3841,-5.3855,-5.3843,-5.3871,-5.3852,-5.3875,-5.3884,-5.389,-5.3915,-5.3964,-5.3997,-5.4042,-5.4156,-5.4161,-5.4211,-5.4229,-5.4243,-5.4256,-5.432,-5.4343,-5.4096,-5.4096,-5.4096,0,0,-5.376,-5.3771,-5.3806,-5.386,-5.3876,-5.3933,-5.3852,-5.3915,-5.3957,-5.3894,-5.3978,-5.3984,-5.4009,-5.4112,-5.4157,-5.4121,-5.4326,-5.4257,-5.4268,-5.4273,-5.4333,-5.4357,-5.4378,-5.4103,-5.4102,-5.4101,0,0,-5.391,-5.3922,-5.4,-5.4018,-5.4044,-5.4036,-5.4055,-5.407,-5.4072,-5.4156,-5.411,-5.416,-5.4245,-5.4266,-5.4288,-5.4449,-5.4413,-5.4465,-5.4558,-5.462,-5.464,-5.4657,-5.4717,-5.4739,-5.4477,-5.4478,-5.4478,0,-5.3988,-5.4072,-5.4044,-5.4112,-5.4138,-5.4083,-5.4164,-5.4182,-5.4221,-5.4241,-5.42,-5.4307,-5.432,-5.4429,-5.4468,-5.4487,-5.4509,-5.4463,-5.4639,-5.4656,-5.4672,-5.4729,-5.4751,-5.4484,-5.4483,-5.4483,-5.4482,0,-5.4169,-5.4227,-5.4288,-5.4328,-5.436,-5.4434,-5.4419,-5.4455,-5.4433,-5.4431,-5.4518,-5.4533,-5.4581,-5.4605,-5.4583,-5.4711,-5.4689,-5.4644,-5.4571,-5.4702,-5.4756,-5.4777,-5.4493,-5.4491,-5.4489,-5.4487,0,0,-5.4375,-5.4401,-5.4423,-5.4442,-5.4468,-5.4513,-5.4585,-5.4633,-5.4666,-5.4695,-5.4756,-5.4831,-5.479,-5.4815,-5.4796,-5.4851,-5.4981,-5.48,-5.48,-5.4835,-5.5127,-5.5161,-5.5187,-5.4957,-5.4961,-5.4964,-5.5125,0,-5.4525,-5.4649,-5.4628,-5.4749,-5.4805,-5.4755,-5.4818,-5.4841,-5.4841,-5.4889,-5.4889,-5.4943,-5.4885,-5.49,-5.4952,-5.4954,-5.504,-5.4942,-5.5015,-5.5018,-5.5012,-5.5214,-5.525,-5.5402,-5.5145,-5.5149,-5.5151,0,-5.4717,-5.4755,-5.4882,-5.4902,-5.4924,-5.4981,-5.5025,-5.507,-5.5097,-5.5093,-5.5123,-5.5094,-5.5168,-5.5093,-5.5196,-5.513,-5.5159,-5.5165,-5.517,-5.5177,-5.5094,-5.5229,-5.5449,-5.5473,-5.5183,-5.5181,-5.5179,0,-5.4858,-5.4941,-5.5028,-5.5045,-5.5069,-5.5111,-5.5123,-5.5145,-5.5177,-5.5215,-5.5235,-5.5282,-5.5308,-5.5345,-5.5331,-5.5277,-5.5438,-5.5361,-5.5439,-5.5439,-5.5475,-5.5474,-5.5706,-5.5491,-5.5491,-5.549,-5.549,0,-5.503,-5.511,-5.5092,-5.5146,-5.5235,-5.5211,-5.53,-5.5306,-5.5327,-5.5382,-5.5342,-5.5395,-5.5372,-5.5424,-5.5413,-5.5502,-5.5513,-5.5514,-5.551,-5.5518,-5.5519,-5.5538,-5.5528,-5.5496,-5.5495,-5.5494,-5.5493,0,-5.5202,-5.5193,-5.5286,-5.5302,-5.5308,-5.5373,-5.5387,-5.5439,-5.5436,-5.5507,-5.5522,-5.5519,-5.5578,-5.5568,-5.5633,-5.5626,-5.5738,-5.572,-5.5729,-5.5726,-5.5805,-5.5799,-5.6059,-5.6093,-5.5854,-5.5857,-5.5859,0,-5.5313,-5.5374,-5.5397,-5.5432,-5.5447,-5.5503,-5.5535,-5.5514,-5.5549,-5.5586,-5.5634,-5.569,-5.5733,-5.5831,-5.5836,-5.5886,-5.5871,-5.5959,-5.5878,-5.5886,-5.5875,-5.5873,-5.588,-5.5975,-5.5978,-5.598,-5.5982,0,-5.5512,-5.5505,-5.5553,-5.56,-5.564,-5.5676,-5.5708,-5.5739,-5.5721,-5.5763,-5.5824,-5.5858,-5.5926,-5.5983,-5.6031,-5.6045,-5.6012,-5.6007,-5.6028,-5.6038,-5.6042,-5.6044,-5.5775,-5.6002,-5.6,-5.5998,-5.5997,-5.5996,-5.5658,-5.5711,-5.5737,-5.5792,-5.5815,-5.5846,-5.5897,-5.5901,-5.5951,-5.6005,-5.599,-5.606,-5.6087,-5.6148,-5.6168,-5.6223,-5.6191,-5.6221,-5.6229,-5.6237,-5.6248,-5.6032,-5.6232,-5.6231,-5.623,-5.623,-5.623,0,-5.5857,-5.5872,-5.5923,-5.597,-5.6014,-5.5979,-5.6014,-5.6053,-5.6115,-5.6144,-5.6188,-5.626,-5.6316,-5.6325,-5.6379,-5.6422,-5.6408,-5.6437,-5.6434,-5.6439,-5.6272,-5.625,-5.6447,-5.6447,-5.6447,-5.6447,-5.6447,-5.6447,-5.5966,-5.6055,-5.6051,-5.6152,-5.6165,-5.6234,-5.6257,-5.6287,-5.631,-5.6392,-5.6438,-5.6444,-5.6466,-5.6521,-5.6572,-5.6573,-5.6596,-5.6631,-5.6627,-5.6472,-5.645,-5.6429,-5.6408,-5.6636,-5.6636,-5.6789,-5.679,-5.6791]},{"header":{"parameterUnit":"m.s-1","parameterCategory":1,"la1":30.2991,"la2":30.254,"lo1":-89.0895,"lo2":-89.0444,"dy":0.0017,"dx":0.0017,"nx":28,"ny":28,"refTime":"2023-09-29T21:00:00:Z","depth":0,"parameterNumber":3,"parameterNumberName":"V-component_of_WINDS"},"data":[0,0,0,0,0,0,0,0,0,0,0,0,0,0,0,0,0,0,0,0,0,0,0,0,0,0,0,0,0,0,0,0,0,0,0,0,0,0,0,0,0,0,0,0,0,0,0,0,0,0,0,0,0,0,0,0,0,0,-2.4596,-2.4596,0,-2.4581,-2.4581,-2.4581,-2.4518,-2.4517,-2.4515,-2.4514,-2.45,-2.4501,-2.4502,0,0,0,0,0,0,0,0,0,0,0,0,0,-2.457,-2.4571,-2.4596,-2.4596,-2.4596,-2.4581,-2.4581,-2.4581,-2.4518,-2.4517,-2.4515,-2.4513,-2.45,-2.4501,-2.4502,0,0,0,0,0,0,0,0,0,0,0,0,0,-2.4571,-2.4571,-2.4596,-2.4563,-2.4559,-2.4581,-2.4581,-2.4581,-2.4519,-2.4517,-2.4514,-2.4512,-2.45,-2.4501,-2.4503,-2.4556,0,0,-2.4507,-2.4508,0,0,0,0,0,0,0,0,-2.4571,-2.4572,-2.4568,-2.4565,-2.4561,-2.4549,-2.4567,-2.4573,-2.4519,-2.4534,-2.4514,-2.4511,-2.4518,-2.4518,-2.452,-2.4555,-2.4555,-2.4507,-2.4508,-2.4509,-2.4509,0,0,0,0,0,0,0,-2.4571,-2.4572,-2.459,-2.4568,-2.4564,-2.4549,-2.4546,-2.4568,-2.4539,-2.4533,-2.4528,-2.4527,-2.4516,-2.4519,-2.452,-2.4554,-2.4507,-2.4509,-2.4509,-2.451,-2.4632,-2.4634,0,0,0,0,0,0,-2.4576,-2.4573,-2.4591,-2.459,-2.4561,-2.4551,-2.4548,-2.4555,-2.4539,-2.4534,-2.4529,-2.4524,-2.4518,-2.4518,-2.4519,-2.458,-2.4509,-2.451,-2.4511,-2.4629,-2.4632,-2.4635,0,0,0,0,0,0,-2.4575,-2.4578,-2.4591,-2.458,-2.458,-2.4554,-2.4562,-2.4556,-2.4559,-2.4536,-2.453,-2.4537,-2.4516,-2.4517,-2.4547,-2.4579,-2.4511,-2.4512,-2.4626,-2.463,-2.4633,-2.4703,0,0,0,0,0,0,-2.4575,-2.4578,-2.4598,-2.4581,-2.4581,-2.462,-2.4564,-2.4558,-2.4562,-2.4555,-2.4542,-2.4538,-2.4514,-2.4545,-2.4548,-2.4579,-2.4513,-2.4624,-2.4628,-2.4632,-2.4698,-2.4708,-2.4717,0,0,0,0,0,-2.4574,-2.4619,-2.46,-2.4602,-2.4606,-2.4622,-2.4622,-2.4594,-2.4564,-2.4584,-2.4569,-2.4538,-2.4574,-2.4549,-2.4552,-2.4584,-2.4621,-2.4627,-2.4632,-2.4693,-2.4706,-2.4717,0,0,0,0,0,0,-2.4641,-2.4616,-2.4594,-2.4635,-2.4631,-2.4611,-2.4635,-2.4608,-2.4613,-2.4607,-2.4572,-2.457,-2.4605,-2.4597,-2.4569,-2.4634,-2.4593,-2.4599,-2.4638,-2.465,-2.466,-2.4661,-2.4515,0,0,0,0,0,-2.4661,-2.4675,-2.4652,-2.469,-2.4689,-2.4663,-2.4669,-2.4647,-2.4642,-2.464,-2.4627,-2.4623,-2.4634,-2.4641,-2.465,-2.4696,-2.4692,-2.4719,-2.4729,-2.4738,-2.4744,-2.4767,-2.4779,-2.4652,-2.4652,-2.4652,0,0,-2.4701,-2.4689,-2.4701,-2.4704,-2.4698,-2.4714,-2.4662,-2.4681,-2.4693,-2.4643,-2.467,-2.4661,-2.4654,-2.4693,-2.4709,-2.4687,-2.4778,-2.4744,-2.4751,-2.4752,-2.4774,-2.4786,-2.4796,-2.4655,-2.4655,-2.4654,0,0,-2.4784,-2.4776,-2.4806,-2.4801,-2.4793,-2.4775,-2.4782,-2.4766,-2.4758,-2.4784,-2.4747,-2.476,-2.4779,-2.4776,-2.4777,-2.4856,-2.4828,-2.486,-2.4912,-2.4935,-2.4945,-2.4954,-2.4982,-2.4993,-2.4866,-2.4866,-2.4866,0,-2.4835,-2.4858,-2.4825,-2.4847,-2.4849,-2.4803,-2.4834,-2.4831,-2.4826,-2.4829,-2.4805,-2.4827,-2.4819,-2.4856,-2.4875,-2.4877,-2.4885,-2.4862,-2.4946,-2.4955,-2.4962,-2.4989,-2.5,-2.487,-2.4869,-2.4869,-2.4869,0,-2.4921,-2.4937,-2.4963,-2.4959,-2.4963,-2.499,-2.4961,-2.497,-2.4948,-2.4932,-2.496,-2.4949,-2.4954,-2.4961,-2.494,-2.4995,-2.4981,-2.4952,-2.491,-2.4979,-2.5004,-2.5014,-2.4876,-2.4874,-2.4873,-2.4872,0,0,-2.5047,-2.5023,-2.5033,-2.503,-2.5017,-2.5029,-2.5053,-2.5057,-2.5065,-2.5063,-2.5082,-2.5099,-2.5071,-2.5072,-2.505,-2.507,-2.5134,-2.5038,-2.5038,-2.5057,-2.5193,-2.5216,-2.5228,-2.5114,-2.5116,-2.5118,-2.5194,0,-2.5125,-2.5164,-2.5135,-2.5179,-2.5193,-2.5149,-2.517,-2.5164,-2.515,-2.516,-2.5144,-2.5157,-2.5119,-2.512,-2.5138,-2.5122,-2.5161,-2.5116,-2.5132,-2.5133,-2.5136,-2.5241,-2.5265,-2.5338,-2.5203,-2.5205,-2.5206,0,-2.5222,-2.5224,-2.5269,-2.5252,-2.5257,-2.5276,-2.5277,-2.5287,-2.5279,-2.5267,-2.5268,-2.524,-2.5262,-2.522,-2.525,-2.522,-2.5224,-2.5218,-2.522,-2.5221,-2.5174,-2.5245,-2.536,-2.5371,-2.5221,-2.522,-2.5219,0,-2.531,-2.5323,-2.5351,-2.535,-2.5331,-2.5345,-2.5338,-2.5328,-2.5332,-2.5333,-2.5335,-2.5339,-2.5341,-2.5345,-2.5319,-2.5291,-2.5352,-2.5308,-2.5343,-2.5344,-2.5359,-2.5359,-2.5477,-2.5361,-2.5361,-2.5361,-2.5361,0,-2.5401,-2.543,-2.539,-2.5407,-2.5439,-2.5405,-2.5437,-2.5425,-2.5417,-2.5431,-2.5394,-2.5408,-2.5373,-2.5384,-2.5363,-2.5391,-2.5392,-2.5384,-2.5378,-2.5387,-2.5389,-2.539,-2.5385,-2.5364,-2.5363,-2.5363,-2.5362,0,-2.5504,-2.5478,-2.5506,-2.5485,-2.548,-2.5504,-2.5486,-2.5502,-2.5484,-2.5504,-2.5506,-2.5479,-2.549,-2.5464,-2.5471,-2.5458,-2.5497,-2.5483,-2.55,-2.5496,-2.5533,-2.553,-2.5657,-2.5672,-2.5547,-2.5548,-2.5549,0,-2.5564,-2.5585,-2.5566,-2.5573,-2.5567,-2.5579,-2.5582,-2.5549,-2.5555,-2.5547,-2.5564,-2.5571,-2.5575,-2.5595,-2.5576,-2.5581,-2.5568,-2.5612,-2.5568,-2.5577,-2.5569,-2.5568,-2.557,-2.5621,-2.5623,-2.5624,-2.5625,0,-2.5673,-2.5659,-2.5665,-2.5667,-2.5672,-2.5672,-2.567,-2.5677,-2.5642,-2.565,-2.566,-2.5664,-2.567,-2.5678,-2.5679,-2.5672,-2.5643,-2.5638,-2.5647,-2.5657,-2.5666,-2.5662,-2.5525,-2.5636,-2.5635,-2.5634,-2.5633,-2.5633,-2.5757,-2.5773,-2.5762,-2.577,-2.5765,-2.5763,-2.5776,-2.576,-2.5767,-2.577,-2.575,-2.5764,-2.5755,-2.5753,-2.5749,-2.576,-2.574,-2.5752,-2.5756,-2.5759,-2.5766,-2.5663,-2.576,-2.576,-2.5759,-2.5759,-2.5759,0,-2.5864,-2.5855,-2.5862,-2.5859,-2.5866,-2.5836,-2.5831,-2.5839,-2.5852,-2.5845,-2.585,-2.5862,-2.5869,-2.585,-2.5855,-2.5867,-2.5854,-2.587,-2.5869,-2.5868,-2.5783,-2.5775,-2.588,-2.588,-2.588,-2.588,-2.588,-2.588,-2.5921,-2.5948,-2.5932,-2.5955,-2.5945,-2.5958,-2.5958,-2.5956,-2.5951,-2.5965,-2.597,-2.5958,-2.5947,-2.595,-2.5955,-2.595,-2.5953,-2.5974,-2.5964,-2.5885,-2.5874,-2.5862,-2.5855,-2.5975,-2.5975,-2.6047,-2.6048,-2.6048]}]]